 day,  time,  air_temp(C),  RH(%),  ground_temp10cm(C),  ground_temp20cm(C),  ground_temp40cm(C),  precipitation(mm/h),  Solar_Radiation(MJ/m2h),  lack, 
 02/12/01, 01:00,   0.8,  93,   1.9,   2.7,   4.3,   0.0,  0.00, 
 02/12/01, 02:00,   0.7,  91,   1.9,   2.7,   4.3,   0.0,  0.00, 
 02/12/01, 03:00,   0.3,  90,   1.9,   2.7,   4.3,   0.0,  0.00, 
 02/12/01, 04:00,   0.8,  82,   1.9,   2.7,   4.3,   0.0,  0.00, 
 02/12/01, 05:00,   0.7,  78,   1.9,   2.7,   4.3,   0.0,  0.00, 
 02/12/01, 06:00,   0.9,  76,   1.9,   2.7,   4.3,   0.0,  0.00, 
 02/12/01, 07:00,  -0.5,  81,   1.9,   2.7,   4.3,   0.0,  0.00, 
 02/12/01, 08:00,   0.6,  89,   1.9,   2.7,   4.2,   0.0,  0.19, 
 02/12/01, 09:00,   3.8,  76,   1.9,   2.7,   4.2,   0.0,  0.95, 
 02/12/01, 10:00,   4.1,  72,   1.9,   2.7,   4.2,   0.0,  1.10, 
 02/12/01, 11:00,   5.1,  57,   1.9,   2.7,   4.2,   0.0,  1.10, 
 02/12/01, 12:00,   3.9,  72,   2.0,   2.7,   4.2,   0.0,  0.91, 
 02/12/01, 13:00,   4.8,  66,   2.0,   2.7,   4.2,   0.0,  0.84, 
 02/12/01, 14:00,   4.0,  76,   2.0,   2.7,   4.2,   0.0,  0.74, 
 02/12/01, 15:00,   3.5,  78,   2.0,   2.7,   4.2,   0.0,  0.24, 
 02/12/01, 16:00,   3.0,  80,   2.0,   2.7,   4.2,   0.0,  0.07, 
 02/12/01, 17:00,   2.4,  85,   1.8,   2.7,   4.2,   0.0,  0.03, 
 02/12/01, 18:00,   2.6,  83,   1.9,   2.7,   4.2,   0.0,  0.00, 
 02/12/01, 19:00,   1.6,  90,   1.8,   2.7,   4.2,   0.0,  0.00, 
 02/12/01, 20:00,   2.3,  81,   1.9,   2.7,   4.2,   0.0,  0.00, 
 02/12/01, 21:00,   1.7,  86,   1.9,   2.7,   4.2,   0.0,  0.00, 
 02/12/01, 22:00,   0.4,  96,   1.8,   2.7,   4.2,   0.0,  0.00, 
 02/12/01, 23:00,   0.7,  90,   1.9,   2.7,   4.2,   0.0,  0.00, 
 02/12/02, 00:00,   0.8,  89,   1.9,   2.7,   4.2,   0.0,  0.00, 
 02/12/02, 01:00,   0.9,  88,   1.8,   2.7,   4.2,   0.0,  0.00, 
 02/12/02, 02:00,   2.2,  61,   1.9,   2.7,   4.2,   0.0,  0.00, 
 02/12/02, 03:00,   2.7,  56,   1.9,   2.7,   4.2,   0.0,  0.00, 
 02/12/02, 04:00,   0.6,  68,   1.8,   2.7,   4.2,   0.0,  0.00, 
 02/12/02, 05:00,   1.8,  63,   1.8,   2.7,   4.2,   0.0,  0.00, 
 02/12/02, 06:00,   1.3,  65,   1.9,   2.7,   4.2,   0.0,  0.00, 
 02/12/02, 07:00,   0.9,  73,   1.8,   2.7,   4.2,   0.0,  0.00, 
 02/12/02, 08:00,   0.2,  80,   1.8,   2.7,   4.2,   0.0,  0.09, 
 02/12/02, 09:00,   1.5,  73,   1.9,   2.7,   4.2,   0.0,  0.20, 
 02/12/02, 10:00,   2.1,  69,   1.9,   2.7,   4.2,   0.0,  0.36, 
 02/12/02, 11:00,   2.3,  72,   1.9,   2.7,   4.2,   0.0,  0.54, 
 02/12/02, 12:00,   2.2,  77,   1.9,   2.7,   4.2,   0.0,  0.56, 
 02/12/02, 13:00,   1.4,  83,   1.9,   2.7,   4.2,   0.0,  0.42, 
 02/12/02, 14:00,   0.7,  89,   1.9,   2.7,   4.2,   0.0,  0.24, 
 02/12/02, 15:00,   0.3,  95,   1.9,   2.7,   4.2,   0.0,  0.20, 
 02/12/02, 16:00,   0.2,  95,   1.9,   2.7,   4.2,   0.0,  0.32, 
 02/12/02, 17:00,  -0.2,  84,   1.9,   2.7,   4.2,   0.0,  0.02, 
 02/12/02, 18:00,  -1.0,  87,   1.9,   2.7,   4.2,   0.0,  0.00, 
 02/12/02, 19:00,  -1.0,  82,   1.9,   2.7,   4.2,   0.0,  0.00, 
 02/12/02, 20:00,  -2.2,  87,   1.9,   2.7,   4.2,   0.0,  0.00, 
 02/12/02, 21:00,  -2.6,  86,   1.9,   2.7,   4.2,   0.0,  0.00, 
 02/12/02, 22:00,  -3.6,  89,   1.8,   2.7,   4.2,   0.0,  0.00, 
 02/12/02, 23:00,  -3.6,  88,   1.8,   2.7,   4.2,   0.0,  0.00, 
 02/12/03, 00:00,  -3.7,  90,   1.9,   2.7,   4.2,   0.0,  0.00, 
 02/12/03, 01:00,  -3.9,  84,   1.9,   2.7,   4.2,   0.0,  0.00, 
 02/12/03, 02:00,  -3.9,  84,   1.8,   2.6,   4.2,   0.0,  0.00, 
 02/12/03, 03:00,  -3.7,  71,   1.8,   2.6,   4.2,   0.0,  0.00, 
 02/12/03, 04:00,  -2.0,  57,   1.8,   2.6,   4.2,   0.0,  0.00, 
 02/12/03, 05:00,  -3.0,  61,   1.7,   2.6,   4.2,   0.0,  0.00, 
 02/12/03, 06:00,  -3.1,  64,   1.7,   2.6,   4.1,   0.0,  0.00, 
 02/12/03, 07:00,  -2.7,  62,   1.7,   2.6,   4.1,   0.0,  0.00, 
 02/12/03, 08:00,  -1.9,  68,   1.6,   2.6,   4.1,   0.0,  0.23, 
 02/12/03, 09:00,   1.4,  74,   1.6,   2.6,   4.1,   0.0,  0.98, 
 02/12/03, 10:00,   4.1,  58,   1.5,   2.6,   4.1,   0.0,  1.52, 
 02/12/03, 11:00,   3.2,  59,   1.6,   2.6,   4.1,   0.0,  1.88, 
 02/12/03, 12:00,   3.6,  60,   1.6,   2.5,   4.1,   0.0,  1.97, 
 02/12/03, 13:00,   4.3,  65,   1.6,   2.5,   4.1,   0.0,  1.94, 
 02/12/03, 14:00,   5.0,  64,   1.6,   2.5,   4.1,   0.0,  1.43, 
 02/12/03, 15:00,   4.0,  68,   1.6,   2.5,   4.1,   0.0,  0.85, 
 02/12/03, 16:00,   3.7,  70,   1.6,   2.5,   4.1,   0.0,  0.27, 
 02/12/03, 17:00,   2.4,  75,   1.6,   2.5,   4.1,   0.0,  0.01, 
 02/12/03, 18:00,   2.5,  76,   1.6,   2.5,   4.1,   0.0,  0.00, 
 02/12/03, 19:00,   0.6,  87,   1.6,   2.4,   4.1,   0.0,  0.00, 
 02/12/03, 20:00,   0.2,  72,   1.6,   2.4,   4.1,   0.0,  0.00, 
 02/12/03, 21:00,   2.7,  42,   1.5,   2.4,   4.1,   0.0,  0.00, 
 02/12/03, 22:00,   2.9,  40,   1.6,   2.4,   4.1,   0.0,  0.00, 
 02/12/03, 23:00,   1.5,  53,   1.5,   2.4,   4.1,   0.0,  0.00, 
 02/12/04, 00:00,   2.2,  48,   1.5,   2.4,   4.1,   0.0,  0.00, 
 02/12/04, 01:00,   5.0,  41,   1.7,   2.4,   4.1,   0.0,  0.00, 
 02/12/04, 02:00,   4.1,  54,   1.7,   2.4,   4.1,   0.0,  0.00, 
 02/12/04, 03:00,   3.8,  81,   1.6,   2.4,   4.1,   0.0,  0.00, 
 02/12/04, 04:00,   3.9,  95,   1.7,   2.4,   4.1,   0.0,  0.00, 
 02/12/04, 05:00,   3.8,  99,   1.6,   2.4,   4.1,   0.5,  0.00, 
 02/12/04, 06:00,   4.4,  93,   1.6,   2.4,   4.1,   0.0,  0.00, 
 02/12/04, 07:00,   4.3,  93,   1.6,   2.4,   4.0,   0.5,  0.00, 
 02/12/04, 08:00,   5.1,  89,   1.6,   2.4,   4.1,   0.5,  0.04, 
 02/12/04, 09:00,   4.8,  95,   1.6,   2.4,   4.1,   0.5,  0.15, 
 02/12/04, 10:00,   6.3,  86,   1.7,   2.4,   4.1,   0.0,  0.37, 
 02/12/04, 11:00,   5.8,  99,   1.7,   2.4,   4.1,   1.0,  0.34, 
 02/12/04, 12:00,   5.8,  99,   1.6,   2.4,   4.1,   0.5,  0.41, 
 02/12/04, 13:00,   5.4,  99,   1.6,   2.4,   4.1,   0.5,  0.30, 
 02/12/04, 14:00,   5.4,  99,   1.6,   2.4,   4.1,   0.5,  0.24, 
 02/12/04, 15:00,   5.0,  99,   1.6,   2.4,   4.1,   0.5,  0.08, 
 02/12/04, 16:00,   5.2,  99,   1.6,   2.4,   4.1,   0.5,  0.05, 
 02/12/04, 17:00,   6.6,  99,   1.6,   2.4,   4.0,   0.0,  0.00, 
 02/12/04, 18:00,   6.7,  99,   1.6,   2.4,   4.0,   0.5,  0.00, 
 02/12/04, 19:00,   5.9,  99,   1.6,   2.4,   4.0,   0.0,  0.00, 
 02/12/04, 20:00,   6.3,  99,   1.6,   2.3,   4.0,   0.0,  0.00, 
 02/12/04, 21:00,   6.4,  98,   1.6,   2.3,   4.0,   0.0,  0.00, 
 02/12/04, 22:00,   6.4,  93,   1.6,   2.4,   4.0,   0.0,  0.00, 
 02/12/04, 23:00,   5.2,  99,   1.6,   2.3,   4.0,   0.0,  0.00, 
 02/12/05, 00:00,   6.2,  89,   1.7,   2.4,   3.9,   0.0,  0.00, 
 02/12/05, 01:00,   6.2,  86,   1.7,   2.4,   3.9,   0.0,  0.00, 
 02/12/05, 02:00,   6.1,  86,   1.7,   2.3,   3.9,   0.0,  0.00, 
 02/12/05, 03:00,   5.2,  90,   1.8,   2.3,   3.9,   0.0,  0.00, 
 02/12/05, 04:00,   4.6,  92,   1.8,   2.4,   3.9,   0.0,  0.00, 
 02/12/05, 05:00,   5.5,  86,   1.9,   2.4,   3.9,   0.0,  0.00, 
 02/12/05, 06:00,   4.1,  99,   1.9,   2.4,   3.9,   0.0,  0.00, 
 02/12/05, 07:00,   4.2,  96,   2.0,   2.4,   3.9,   0.0,  0.00, 
 02/12/05, 08:00,   4.3,  98,   2.0,   2.4,   3.9,   0.0,  0.03, 
 02/12/05, 09:00,   5.3,  93,   2.1,   2.5,   3.9,   0.0,  0.29, 
 02/12/05, 10:00,   5.5,  89,   2.2,   2.5,   3.9,   0.0,  0.73, 
 02/12/05, 11:00,   5.6,  89,   2.4,   2.5,   3.9,   0.0,  0.91, 
 02/12/05, 12:00,   5.1,  90,   2.6,   2.7,   3.9,   0.0,  0.59, 
 02/12/05, 13:00,   5.1,  89,   2.9,   2.7,   3.9,   0.0,  0.47, 
 02/12/05, 14:00,   4.9,  89,   3.0,   2.8,   3.9,   0.5,  0.58, 
 02/12/05, 15:00,   5.0,  86,   3.2,   2.8,   3.9,   0.0,  0.76, 
 02/12/05, 16:00,   4.6,  87,   3.3,   2.8,   3.9,   0.0,  0.19, 
 02/12/05, 17:00,   3.9,  87,   3.2,   3.0,   3.9,   0.0,  0.02, 
 02/12/05, 18:00,   3.2,  92,   3.2,   2.9,   3.9,   0.0,  0.00, 
 02/12/05, 19:00,   4.3,  72,   3.1,   3.0,   3.9,   0.0,  0.00, 
 02/12/05, 20:00,   3.0,  88,   3.0,   3.1,   3.9,   0.0,  0.00, 
 02/12/05, 21:00,   3.0,  91,   2.9,   3.1,   4.0,   0.0,  0.00, 
 02/12/05, 22:00,   2.4,  99,   2.9,   3.1,   4.0,   0.0,  0.00, 
 02/12/05, 23:00,   2.4,  99,   2.9,   3.1,   4.0,   0.0,  0.00, 
 02/12/06, 00:00,   1.4,  99,   2.9,   3.1,   4.0,   0.0,  0.00, 
 02/12/06, 01:00,   0.4,  99,   2.8,   3.1,   4.0,   0.0,  0.00, 
 02/12/06, 02:00,  -0.1,  97,   2.8,   3.1,   4.0,   0.0,  0.00, 
 02/12/06, 03:00,  -0.3,  95,   2.8,   3.1,   4.0,   0.0,  0.00, 
 02/12/06, 04:00,  -0.6,  99,   2.7,   3.1,   4.0,   0.0,  0.00, 
 02/12/06, 05:00,  -0.5,  88,   2.5,   3.1,   4.1,   0.0,  0.00, 
 02/12/06, 06:00,  -1.1,  91,   2.6,   3.1,   4.1,   0.0,  0.00, 
 02/12/06, 07:00,  -1.3,  95,   2.4,   3.1,   4.1,   0.0,  0.00, 
 02/12/06, 08:00,  -1.6,  92,   2.3,   3.1,   4.1,   0.0,  0.14, 
 02/12/06, 09:00,  -0.9,  86,   2.3,   3.1,   4.1,   0.0,  0.70, 
 02/12/06, 10:00,  -1.5,  89,   2.3,   3.1,   4.1,   0.0,  0.74, 
 02/12/06, 11:00,  -2.0,  93,   2.3,   3.1,   4.1,   0.0,  0.79, 
 02/12/06, 12:00,  -2.5,  96,   2.5,   3.1,   4.1,   0.0,  0.35, 
 02/12/06, 13:00,  -3.2,  97,   2.6,   3.0,   4.1,   0.0,  0.25, 
 02/12/06, 14:00,  -3.1,  97,   2.6,   3.0,   4.1,   0.0,  0.16, 
 02/12/06, 15:00,  -3.3,  97,   2.5,   3.0,   4.1,   0.0,  0.11, 
 02/12/06, 16:00,  -3.5,  97,   2.5,   3.0,   4.1,   0.0,  0.03, 
 02/12/06, 17:00,  -3.6,  97,   2.4,   3.0,   4.1,   0.0,  0.00, 
 02/12/06, 18:00,  -3.7,  98,   2.3,   3.0,   4.1,   0.0,  0.00, 
 02/12/06, 19:00,  -4.0,  98,   2.3,   3.0,   4.1,   0.0,  0.00, 
 02/12/06, 20:00,  -4.1,  99,   2.2,   3.0,   4.1,   0.0,  0.00, 
 02/12/06, 21:00,  -4.0,  98,   2.1,   3.0,   4.1,   0.0,  0.00, 
 02/12/06, 22:00,  -4.0,  97,   2.0,   3.0,   4.1,   0.0,  0.00, 
 02/12/06, 23:00,  -3.0,  96,   2.0,   2.9,   4.1,   0.0,  0.00, 
 02/12/07, 00:00,  -0.3,  98,   1.9,   2.9,   4.1,   0.0,  0.00, 
 02/12/07, 01:00,   0.2,  99,   1.9,   2.9,   4.1,   0.0,  0.00, 
 02/12/07, 02:00,   0.4,  98,   1.8,   2.8,   4.1,   0.0,  0.00, 
 02/12/07, 03:00,   1.0,  94,   1.8,   2.8,   4.1,   0.0,  0.00, 
 02/12/07, 04:00,   0.5,  96,   1.7,   2.8,   4.1,   0.0,  0.00, 
 02/12/07, 05:00,   0.6,  99,   1.8,   2.8,   4.1,   0.0,  0.00, 
 02/12/07, 06:00,   0.5,  97,   1.6,   2.7,   4.1,   0.0,  0.00, 
 02/12/07, 07:00,  -0.4,  96,   1.6,   2.7,   4.1,   0.0,  0.00, 
 02/12/07, 08:00,   0.8,  91,   1.6,   2.7,   4.1,   0.0,  0.00, 
 02/12/07, 09:00,   2.6,  86,   1.7,   2.7,   4.1,   0.0,  0.21, 
 02/12/07, 10:00,   2.8,  88,   1.6,   2.7,   4.1,   0.0,  0.34, 
 02/12/07, 11:00,   3.9,  86,   1.8,   2.6,   4.1,   0.0,  0.52, 
 02/12/07, 12:00,   3.3,  88,   2.0,   2.6,   4.1,   0.0,  0.45, 
 02/12/07, 13:00,   3.1,  94,   2.1,   2.6,   4.1,   0.0,  0.45, 
 02/12/07, 14:00,   3.6,  88,   2.3,   2.6,   4.1,   0.0,  0.39, 
 02/12/07, 15:00,   2.7,  97,   2.5,   2.7,   4.1,   0.0,  0.11, 
 02/12/07, 16:00,   1.3,  96,   2.6,   2.7,   4.1,   1.0,  0.03, 
 02/12/07, 17:00,   0.5,  98,   2.6,   2.8,   4.1,   1.5,  0.00, 
 02/12/07, 18:00,  -0.2,  99,   2.5,   2.8,   4.1,   1.5,  0.00, 
 02/12/07, 19:00,  -0.9,  99,   2.4,   2.8,   4.1,   1.0,  0.00, 
 02/12/07, 20:00,  -0.5,  99,   2.4,   2.9,   4.1,   2.0,  0.00, 
 02/12/07, 21:00,  -1.0,  98,   2.3,   2.9,   4.1,   1.5,  0.00, 
 02/12/07, 22:00,  -1.2,  99,   2.3,   2.9,   4.1,   0.0,  0.00, 
 02/12/07, 23:00,  -1.9,  99,   2.2,   2.9,   4.0,   0.0,  0.00, 
 02/12/08, 00:00,  -2.2,  99,   2.2,   2.9,   4.1,   0.0,  0.00, 
 02/12/08, 01:00,  -2.3,  99,   2.2,   2.9,   4.1,   0.0,  0.00, 
 02/12/08, 02:00,  -2.4,  99,   2.1,   2.9,   4.1,   0.0,  0.00, 
 02/12/08, 03:00,  -2.6,  99,   2.1,   2.9,   4.1,   0.0,  0.00, 
 02/12/08, 04:00,  -2.8,  98,   2.1,   2.8,   4.1,   0.0,  0.00, 
 02/12/08, 05:00,  -2.8,  98,   2.1,   2.8,   4.1,   0.0,  0.00, 
 02/12/08, 06:00,  -2.8,  97,   2.1,   2.8,   4.1,   0.0,  0.00, 
 02/12/08, 07:00,  -2.9,  98,   2.1,   2.8,   4.1,   0.5,  0.00, 
 02/12/08, 08:00,  -2.7,  99,   2.0,   2.8,   4.1,   0.0,  0.00, 
 02/12/08, 09:00,  -2.6,  99,   2.0,   2.8,   4.1,   0.0,  0.10, 
 02/12/08, 10:00,  -2.6,  98,   2.0,   2.8,   4.1,   0.5,  0.17, 
 02/12/08, 11:00,  -2.5,  97,   2.0,   2.8,   4.1,   0.5,  0.22, 
 02/12/08, 12:00,  -2.7,  99,   2.0,   2.8,   4.1,   0.5,  0.20, 
 02/12/08, 13:00,  -2.5,  98,   2.0,   2.8,   4.1,   0.0,  0.17, 
 02/12/08, 14:00,  -2.4,  98,   2.0,   2.8,   4.1,   1.0,  0.18, 
 02/12/08, 15:00,  -3.2,  96,   2.0,   2.8,   4.1,   0.0,  0.07, 
 02/12/08, 16:00,  -2.9,  96,   2.0,   2.8,   4.1,   0.0,  0.00, 
 02/12/08, 17:00,  -3.4,  96,   2.0,   2.8,   4.1,   0.0,  0.00, 
 02/12/08, 18:00,  -3.6,  96,   2.0,   2.8,   4.1,   0.0,  0.00, 
 02/12/08, 19:00,  -3.9,  98,   2.0,   2.8,   4.1,   0.0,  0.00, 
 02/12/08, 20:00,  -3.9,  95,   2.0,   2.8,   4.1,   1.5,  0.00, 
 02/12/08, 21:00,  -3.9,  95,   2.0,   2.8,   4.1,   1.0,  0.00, 
 02/12/08, 22:00,  -4.2,  95,   1.9,   2.7,   4.1,   2.0,  0.00, 
 02/12/08, 23:00,  -4.1,  95,   1.9,   2.7,   4.1,   2.0,  0.00, 
 02/12/09, 00:00,  -3.9,  95,   1.9,   2.7,   4.0,   1.5,  0.00, 
 02/12/09, 01:00,  -4.3,  94,   1.9,   2.7,   4.0,   1.5,  0.00, 
 02/12/09, 02:00,  -4.3,  95,   1.9,   2.7,   4.0,   2.0,  0.00, 
 02/12/09, 03:00,  -4.3,  95,   1.9,   2.7,   4.0,   1.0,  0.00, 
 02/12/09, 04:00,  -4.6,  94,   1.9,   2.7,   4.0,   1.5,  0.00, 
 02/12/09, 05:00,  -4.7,  95,   1.9,   2.7,   4.0,   2.0,  0.00, 
 02/12/09, 06:00,  -4.5,  94,   1.9,   2.7,   4.0,   0.5,  0.00, 
 02/12/09, 07:00,  -4.6,  95,   1.9,   2.7,   4.0,   0.5,  0.00, 
 02/12/09, 08:00,  -4.2,  96,   1.9,   2.7,   4.0,   0.5,  0.00, 
 02/12/09, 09:00,  -2.9,  97,   1.9,   2.7,   4.0,   0.0,  0.04, 
 02/12/09, 10:00,  -1.6,  98,   1.9,   2.7,   4.0,   0.0,  0.13, 
 02/12/09, 11:00,  -0.5,  97,   1.9,   2.7,   4.0,   0.0,  0.20, 
 02/12/09, 12:00,  -0.3,  98,   1.9,   2.7,   4.1,   0.0,  0.16, 
 02/12/09, 13:00,  -0.7,  98,   2.0,   2.7,   4.1,   0.5,  0.14, 
 02/12/09, 14:00,  -0.8,  98,   2.0,   2.7,   4.1,   0.0,  0.13, 
 02/12/09, 15:00,  -1.4,  95,   2.0,   2.7,   4.1,   0.0,  0.15, 
 02/12/09, 16:00,  -2.2,  92,   2.0,   2.7,   4.1,   0.0,  0.01, 
 02/12/09, 17:00,  -2.7,  92,   2.0,   2.7,   4.1,   0.0,  0.00, 
 02/12/09, 18:00,  -2.5,  93,   2.0,   2.7,   4.1,   0.0,  0.00, 
 02/12/09, 19:00,  -2.4,  95,   1.9,   2.7,   4.0,   1.0,  0.00, 
 02/12/09, 20:00,  -4.1,  94,   1.9,   2.7,   4.1,   2.5,  0.00, 
 02/12/09, 21:00,  -4.3,  98,   1.9,   2.7,   4.1,   0.0,  0.00, 
 02/12/09, 22:00,  -4.5,  98,   1.9,   2.7,   4.0,   0.0,  0.00, 
 02/12/09, 23:00,  -4.7,  98,   1.9,   2.7,   4.0,   0.0,  0.00, 
 02/12/10, 00:00,  -4.7,  97,   1.9,   2.7,   4.1,   0.0,  0.00, 
 02/12/10, 01:00,  -4.9,  96,   1.9,   2.7,   4.0,   0.0,  0.00, 
 02/12/10, 02:00,  -4.6,  95,   1.9,   2.7,   4.0,   0.5,  0.00, 
 02/12/10, 03:00,  -4.9,  95,   1.9,   2.7,   4.0,   1.0,  0.00, 
 02/12/10, 04:00,  -5.0,  95,   1.9,   2.7,   4.0,   0.5,  0.00, 
 02/12/10, 05:00,  -4.7,  95,   1.9,   2.7,   4.0,   0.0,  0.00, 
 02/12/10, 06:00,  -5.1,  96,   1.9,   2.7,   4.1,   0.5,  0.00, 
 02/12/10, 07:00,  -5.3,  95,   1.9,   2.7,   4.0,   1.0,  0.00, 
 02/12/10, 08:00,  -5.8,  94,   1.9,   2.7,   4.0,   1.0,  0.00, 
 02/12/10, 09:00,  -5.6,  94,   1.9,   2.6,   4.0,   0.0,  0.13, 
 02/12/10, 10:00,  -4.6,  93,   1.9,   2.6,   4.0,   0.0,  0.29, 
 02/12/10, 11:00,  -5.4,  94,   1.9,   2.6,   4.0,   1.0,  0.10, 
 02/12/10, 12:00,  -5.2,  93,   1.9,   2.6,   4.0,   0.0,  0.16, 
 02/12/10, 13:00,  -4.4,  91,   1.8,   2.6,   4.0,   0.0,  0.37, 
 02/12/10, 14:00,  -4.5,  95,   1.8,   2.6,   4.1,   0.0,  0.20, 
 02/12/10, 15:00,  -5.1,  94,   1.9,   2.6,   4.1,   0.5,  0.09, 
 02/12/10, 16:00,  -6.0,  95,   1.8,   2.6,   4.0,   1.0,  0.01, 
 02/12/10, 17:00,  -6.6,  93,   1.8,   2.6,   4.0,   1.0,  0.00, 
 02/12/10, 18:00,  -7.1,  90,   1.8,   2.6,   4.0,   0.0,  0.00, 
 02/12/10, 19:00,  -7.2,  91,   1.8,   2.6,   4.0,   0.0,  0.00, 
 02/12/10, 20:00,  -7.0,  92,   1.8,   2.6,   4.0,   1.0,  0.00, 
 02/12/10, 21:00,  -6.9,  92,   1.8,   2.6,   4.0,   1.0,  0.00, 
 02/12/10, 22:00,  -6.9,  92,   1.8,   2.6,   4.0,   1.0,  0.00, 
 02/12/10, 23:00,  -7.1,  94,   1.8,   2.6,   4.0,   1.5,  0.00, 
 02/12/11, 00:00,  -7.4,  93,   1.8,   2.6,   4.0,   0.0,  0.00, 
 02/12/11, 01:00,  -8.0,  93,   1.8,   2.6,   4.0,   1.0,  0.00, 
 02/12/11, 02:00,  -8.4,  92,   1.8,   2.6,   4.0,   0.0,  0.00, 
 02/12/11, 03:00,  -8.6,  91,   1.8,   2.6,   4.0,   0.0,  0.00, 
 02/12/11, 04:00,  -8.7,  91,   1.8,   2.6,   4.0,   0.0,  0.00, 
 02/12/11, 05:00,  -8.7,  91,   1.8,   2.6,   4.0,   0.0,  0.00, 
 02/12/11, 06:00,  -8.7,  91,   1.8,   2.6,   4.0,   0.0,  0.00, 
 02/12/11, 07:00,  -8.7,  91,   1.8,   2.6,   4.0,   0.0,  0.00, 
 02/12/11, 08:00,  -8.5,  91,   1.8,   2.6,   4.0,   0.0,  0.00, 
 02/12/11, 09:00,  -7.9,  91,   1.8,   2.6,   4.0,   0.0,  0.10, 
 02/12/11, 10:00,  -6.6,  90,   1.8,   2.6,   4.1,   0.5,  0.21, 
 02/12/11, 11:00,  -5.5,  88,   1.9,   2.6,   4.1,   0.0,  0.43, 
 02/12/11, 12:00,  -5.2,  90,   1.9,   2.6,   4.1,   0.0,  0.28, 
 02/12/11, 13:00,  -5.0,  90,   1.9,   2.6,   4.1,   0.0,  0.26, 
 02/12/11, 14:00,  -5.6,  92,   1.9,   2.6,   4.1,   1.0,  0.21, 
 02/12/11, 15:00,  -5.6,  94,   1.9,   2.6,   4.1,   0.0,  0.11, 
 02/12/11, 16:00,  -6.2,  93,   1.9,   2.6,   4.1,   0.0,  0.00, 
 02/12/11, 17:00,  -6.5,  94,   1.9,   2.6,   4.0,   1.5,  0.00, 
 02/12/11, 18:00,  -6.7,  92,   1.9,   2.6,   4.0,   0.5,  0.00, 
 02/12/11, 19:00,  -6.7,  92,   1.9,   2.6,   4.0,   0.0,  0.00, 
 02/12/11, 20:00,  -6.7,  92,   1.9,   2.6,   4.0,   0.5,  0.00, 
 02/12/11, 21:00,  -6.5,  92,   1.9,   2.6,   4.0,   0.0,  0.00, 
 02/12/11, 22:00,  -6.5,  93,   1.9,   2.6,   4.0,   0.0,  0.00, 
 02/12/11, 23:00,  -6.4,  92,   1.9,   2.6,   4.0,   0.0,  0.00, 
 02/12/12, 00:00,  -6.4,  92,   1.9,   2.6,   4.0,   0.5,  0.00, 
 02/12/12, 01:00,  -6.5,  93,   1.9,   2.6,   3.9,   0.0,  0.00, 
 02/12/12, 02:00,  -6.4,  91,   1.9,   2.6,   4.0,   0.0,  0.00, 
 02/12/12, 03:00,  -6.5,  93,   1.9,   2.6,   4.0,   0.5,  0.00, 
 02/12/12, 04:00,  -6.4,  93,   1.8,   2.6,   3.9,   0.0,  0.00, 
 02/12/12, 05:00,  -6.3,  93,   1.9,   2.6,   3.9,   0.0,  0.00, 
 02/12/12, 06:00,  -6.2,  93,   1.8,   2.6,   3.9,   0.0,  0.00, 
 02/12/12, 07:00,  -6.1,  93,   1.8,   2.6,   3.9,   0.0,  0.00, 
 02/12/12, 08:00,  -5.8,  93,   1.8,   2.6,   4.0,   0.0,  0.00, 
 02/12/12, 09:00,  -5.3,  92,   1.8,   2.6,   3.9,   0.0,  0.07, 
 02/12/12, 10:00,  -4.3,  90,   1.8,   2.6,   3.9,   0.0,  0.21, 
 02/12/12, 11:00,  -3.2,  89,   1.9,   2.6,   4.0,   0.0,  0.41, 
 02/12/12, 12:00,  -3.5,  87,   1.9,   2.6,   3.9,   0.0,  0.29, 
 02/12/12, 13:00,  -3.7,  89,   1.9,   2.6,   4.0,   0.5,  0.20, 
 02/12/12, 14:00,  -4.0,  90,   1.9,   2.6,   4.0,   0.0,  0.15, 
 02/12/12, 15:00,  -3.9,  91,   1.9,   2.6,   4.0,   0.0,  0.10, 
 02/12/12, 16:00,  -4.5,  92,   1.9,   2.6,   4.0,   0.0,  0.02, 
 02/12/12, 17:00,  -4.8,  94,   1.9,   2.6,   4.0,   0.5,  0.00, 
 02/12/12, 18:00,  -4.9,  95,   1.9,   2.6,   4.0,   1.0,  0.00, 
 02/12/12, 19:00,  -5.1,  94,   1.9,   2.6,   4.0,   0.0,  0.00, 
 02/12/12, 20:00,  -5.0,  94,   1.9,   2.6,   4.0,   1.0,  0.00, 
 02/12/12, 21:00,  -5.0,  94,   1.9,   2.6,   4.0,   1.0,  0.00, 
 02/12/12, 22:00,  -5.2,  95,   1.9,   2.5,   4.0,   1.0,  0.00, 
 02/12/12, 23:00,  -5.6,  93,   1.9,   2.5,   4.0,   0.5,  0.00, 
 02/12/13, 00:00,  -5.9,  93,   1.9,   2.5,   4.0,   0.0,  0.00, 
 02/12/13, 01:00,  -5.8,  91,   1.9,   2.5,   4.0,   0.0,  0.00, 
 02/12/13, 02:00,  -6.6,  89,   1.9,   2.5,   4.0,   0.0,  0.00, 
 02/12/13, 03:00,  -6.4,  94,   1.9,   2.5,   4.0,   1.0,  0.00, 
 02/12/13, 04:00,  -6.5,  93,   1.9,   2.5,   4.0,   0.0,  0.00, 
 02/12/13, 05:00,  -7.2,  91,   1.9,   2.5,   4.0,   0.0,  0.00, 
 02/12/13, 06:00,  -7.3,  91,   1.9,   2.5,   4.0,   0.0,  0.00, 
 02/12/13, 07:00,  -7.3,  90,   1.9,   2.5,   4.0,   0.0,  0.00, 
 02/12/13, 08:00,  -7.1,  90,   1.9,   2.5,   4.0,   0.0,  0.01, 
 02/12/13, 09:00,  -6.6,  87,   1.9,   2.5,   4.0,   0.0,  0.14, 
 02/12/13, 10:00,  -6.1,  89,   1.9,   2.5,   4.0,   0.0,  0.29, 
 02/12/13, 11:00,  -6.0,  86,   1.9,   2.5,   4.0,   0.0,  0.19, 
 02/12/13, 12:00,  -5.7,  89,   2.0,   2.5,   4.0,   2.0,  0.35, 
 02/12/13, 13:00,  -6.5,  84,   2.0,   2.6,   4.0,   0.0,  0.25, 
 02/12/13, 14:00,  -6.4,  86,   2.0,   2.5,   4.0,   0.0,  0.24, 
 02/12/13, 15:00,  -6.9,  87,   2.0,   2.6,   4.0,   0.0,  0.15, 
 02/12/13, 16:00,  -7.5,  85,   2.0,   2.6,   4.0,   0.0,  0.06, 
 02/12/13, 17:00,  -7.9,  90,   2.0,   2.5,   4.0,   0.0,  0.00, 
 02/12/13, 18:00,  -8.2,  90,   2.0,   2.6,   4.0,   0.0,  0.00, 
 02/12/13, 19:00,  -8.3,  86,   2.0,   2.6,   4.0,   0.0,  0.00, 
 02/12/13, 20:00,  -8.2,  84,   2.0,   2.6,   4.0,   0.0,  0.00, 
 02/12/13, 21:00,  -8.4,  86,   2.0,   2.6,   4.1,   0.0,  0.00, 
 02/12/13, 22:00,  -8.3,  86,   2.0,   2.6,   4.1,   0.0,  0.00, 
 02/12/13, 23:00,  -8.3,  84,   2.0,   2.6,   4.1,   0.0,  0.00, 
 02/12/14, 00:00,  -9.0,  81,   2.0,   2.6,   4.1,   0.0,  0.00, 
 02/12/14, 01:00, -10.1,  82,   2.0,   2.6,   4.0,   0.0,  0.00, 
 02/12/14, 02:00, -10.6,  83,   2.0,   2.6,   4.0,   0.0,  0.00, 
 02/12/14, 03:00, -11.1,  84,   2.0,   2.6,   4.0,   0.0,  0.00, 
 02/12/14, 04:00, -10.8,  83,   2.0,   2.6,   4.0,   0.0,  0.00, 
 02/12/14, 05:00, -12.1,  88,   2.0,   2.6,   4.0,   0.0,  0.00, 
 02/12/14, 06:00, -11.9,  87,   2.0,   2.6,   3.9,   0.0,  0.00, 
 02/12/14, 07:00, -12.3,  88,   2.0,   2.6,   3.9,   0.0,  0.00, 
 02/12/14, 08:00, -12.0,  90,   2.0,   2.6,   3.9,   0.0,  0.03, 
 02/12/14, 09:00,  -8.2,  91,   2.0,   2.6,   4.0,   0.0,  0.29, 
 02/12/14, 10:00,  -6.3,  87,   2.0,   2.6,   4.0,   0.0,  0.47, 
 02/12/14, 11:00,  -5.9,  83,   2.0,   2.6,   4.0,   0.0,  0.69, 
 02/12/14, 12:00,  -4.9,  84,   2.0,   2.6,   4.0,   0.0,  0.90, 
 02/12/14, 13:00,  -3.2,  83,   2.0,   2.6,   4.0,   0.0,  1.21, 
 02/12/14, 14:00,  -2.6,  84,   2.0,   2.6,   4.0,   0.0,  1.24, 
 02/12/14, 15:00,  -3.3,  88,   2.0,   2.6,   4.0,   0.0,  0.83, 
 02/12/14, 16:00,  -3.7,  86,   2.0,   2.6,   3.9,   0.0,  0.09, 
 02/12/14, 17:00,  -4.7,  88,   1.9,   2.6,   3.9,   0.0,  0.00, 
 02/12/14, 18:00,  -4.8,  87,   1.8,   2.5,   3.9,   0.0,  0.00, 
 02/12/14, 19:00,  -6.5,  94,   1.8,   2.5,   3.9,   0.0,  0.00, 
 02/12/14, 20:00,  -5.6,  83,   1.8,   2.6,   3.9,   0.0,  0.00, 
 02/12/14, 21:00,  -5.1,  82,   1.8,   2.6,   3.9,   0.0,  0.00, 
 02/12/14, 22:00,  -7.6,  88,   1.8,   2.5,   3.9,   0.0,  0.00, 
 02/12/14, 23:00,  -4.4,  67,   1.8,   2.6,   3.9,   0.0,  0.00, 
 02/12/15, 00:00,  -5.2,  70,   1.8,   2.5,   3.9,   0.0,  0.00, 
 02/12/15, 01:00,  -4.3,  68,   1.8,   2.5,   3.9,   0.0,  0.00, 
 02/12/15, 02:00,  -2.0,  47,   1.8,   2.5,   3.9,   0.0,  0.00, 
 02/12/15, 03:00,  -3.6,  65,   1.8,   2.5,   3.9,   0.0,  0.00, 
 02/12/15, 04:00,  -5.3,  75,   1.8,   2.5,   3.9,   0.0,  0.00, 
 02/12/15, 05:00,  -1.3,  56,   1.8,   2.5,   3.9,   0.0,  0.00, 
 02/12/15, 06:00,  -2.1,  59,   1.8,   2.5,   3.9,   0.0,  0.00, 
 02/12/15, 07:00,  -3.7,  74,   1.8,   2.5,   3.9,   0.0,  0.00, 
 02/12/15, 08:00,  -2.4,  73,   1.8,   2.5,   3.9,   0.0,  0.26, 
 02/12/15, 09:00,   0.7,  67,   1.8,   2.5,   3.9,   0.0,  1.45, 
 02/12/15, 10:00,   1.8,  71,   1.8,   2.5,   3.9,   0.0,  1.73, 
 02/12/15, 11:00,   1.8,  72,   1.8,   2.5,   3.9,   0.0,  1.71, 
 02/12/15, 12:00,   2.8,  70,   1.8,   2.5,   3.9,   0.0,  1.55, 
 02/12/15, 13:00,   2.6,  80,   1.8,   2.5,   3.9,   0.0,  1.67, 
 02/12/15, 14:00,   1.9,  88,   1.9,   2.6,   3.9,   0.0,  1.23, 
 02/12/15, 15:00,   2.3,  77,   1.8,   2.5,   3.9,   0.0,  0.63, 
 02/12/15, 16:00,   2.8,  69,   1.8,   2.6,   3.9,   0.0,  0.20, 
 02/12/15, 17:00,   3.9,  41,   1.8,   2.5,   3.9,   0.0,  0.04, 
 02/12/15, 18:00,   3.9,  37,   1.8,   2.5,   3.9,   0.0,  0.00, 
 02/12/15, 19:00,   0.9,  67,   1.8,   2.5,   3.9,   0.0,  0.00, 
 02/12/15, 20:00,   0.5,  56,   1.8,   2.5,   3.9,   0.0,  0.00, 
 02/12/15, 21:00,   4.1,  30,   1.8,   2.5,   3.9,   0.0,  0.00, 
 02/12/15, 22:00,   1.0,  52,   1.8,   2.5,   3.9,   0.0,  0.00, 
 02/12/15, 23:00,   0.0,  47,   1.8,   2.5,   3.9,   0.0,  0.00, 
 02/12/16, 00:00,   1.8,  32,   1.8,   2.5,   3.9,   0.0,  0.00, 
 02/12/16, 01:00,   4.1,  26,   1.8,   2.4,   3.9,   0.0,  0.00, 